"Pseudo-MPEC" for ST22KA2

Created 2022 Nov 26 21:22:24 UT using Find_Orb

Click here for an explanation of pseudo-MPECs

 
 Astrometry: 
     ST22KA2* C2022 11 22Db]/1MkAstrometryOAexP=redacted;e%$j,b'kn4uXL[[l(Z/fU68
     ST22KA2  C2022 11 22i@mZoh65fg,+ldclickuxLDtj?-pB=]L#lFpLo8=*here$for*k/U68
     ST22KA2  C2022 11 22PU*(\`LVQkc!l`ObDRTj[`:RD\5'fk1n'KA]V2!XXaPa#um2eImKU68
     ST22KA2  C2022 11 22=yp5[_!*'o1SjI/WJA5erQhmD2explanationHG^eF.![G=6RE,cU68

Station data:
(U68) JPL SynTrack Robotic Telescope, Auberry  (N37.070387 W119.412990)
   US/California.  Observers N. Saini, C. Zhai, R. Trahan, M. Zhan, M. Shao.
   0.28-m f/2.2 Schmidt + CCD.

Orbital elements:  ST22KA2
   Perihelion 2022 Sep 26.49316 +/- 59.9 TT = 11:50:09 (JD 2459848.99316)
Epoch 2022 Nov 22.0 TT = JDT 2459905.5   Earth MOID: 0.0014   AutoNEOCP
M  46.88121360 +/- 80               (J2000 ecliptic)
n   0.82965558 +/- 0.777            Peri.  292.74090 +/- 70
a   1.12168476 +/- 0.7              Node    59.04882 +/- 2.6
e   0.2112983 +/- 0.202             Incl.    6.20945 +/- 56
P   1.19/433.91d           H 27.8   G  0.15   U 12.6  SR
q 0.88467458 +/- 0.305    Q 1.35869494 +/- 8.24
From 4 observations 2022 Nov. 22 (35.2 min); mean residual 0".46
Residuals in arcseconds: 
221122 U68  .18-  .37+    221122 U68  .76+  .43-    
221122 U68  .09+  .35-    221122 U68  .66-  .42+    

Ephemerides (geocentric):
Date (UTC) HH   RA             Dec           delta  r     elong  mag " sig PA
---- --------  ------------   ------------  ------ ------ -----  --- --------
2022 11 26 21  05 09 56.650   +48 16 43.36  .02513 1.0088 150.1 21.1  26d 145
2022 11 26 22  05 09 26.823   +48 18 12.29  .02529 1.0089 150.2 21.1  26d 145
2022 11 26 23  05 08 57.333   +48 19 39.51  .02545 1.0091 150.2 21.1  26d 145
2022 11 27 00  05 08 28.174   +48 21 05.06  .02561 1.0092 150.2 21.2  26d 145
2022 11 27 01  05 07 59.342   +48 22 28.98  .02577 1.0094 150.3 21.2  26d 144
2022 11 27 02  05 07 30.830   +48 23 51.31  .02592 1.0095 150.3 21.2  26d 144
2022 11 27 03  05 07 02.635   +48 25 12.08  .02608 1.0096 150.3 21.2  26d 144
2022 11 27 04  05 06 34.750   +48 26 31.33  .02624 1.0098 150.4 21.2  26d 144
2022 11 27 05  05 06 07.172   +48 27 49.08  .02640 1.0099 150.4 21.2  26d 144
2022 11 27 06  05 05 39.895   +48 29 05.37  .02656 1.0101 150.5 21.2  26d 144
2022 11 27 07  05 05 12.914   +48 30 20.24  .02672 1.0102 150.5 21.2  26d 144
2022 11 27 08  05 04 46.226   +48 31 33.70  .02688 1.0103 150.5 21.3  26d 144
2022 11 27 09  05 04 19.826   +48 32 45.80  .02703 1.0105 150.6 21.3  26d 143
2022 11 27 10  05 03 53.709   +48 33 56.55  .02719 1.0106 150.6 21.3  26d 143
2022 11 27 11  05 03 27.871   +48 35 06.00  .02735 1.0107 150.6 21.3  26d 143
2022 11 27 12  05 03 02.308   +48 36 14.16  .02751 1.0109 150.7 21.3  26d 143
2022 11 27 13  05 02 37.016   +48 37 21.06  .02767 1.0110 150.7 21.3  26d 143
2022 11 27 14  05 02 11.990   +48 38 26.73  .02783 1.0112 150.7 21.3  26d 143
2022 11 27 15  05 01 47.227   +48 39 31.19  .02799 1.0113 150.8 21.3  26d 143
2022 11 27 16  05 01 22.723   +48 40 34.47  .02815 1.0114 150.8 21.3  26d 143
2022 11 27 17  05 00 58.474   +48 41 36.59  .02831 1.0116 150.8 21.4  26d 143
2022 11 27 18  05 00 34.475   +48 42 37.57  .02847 1.0117 150.8 21.4  26d 142
2022 11 27 19  05 00 10.725   +48 43 37.44  .02863 1.0119 150.9 21.4  26d 142
2022 11 27 20  04 59 47.218   +48 44 36.22  .02879 1.0120 150.9 21.4  26d 142
2022 11 27 21  04 59 23.952   +48 45 33.93  .02895 1.0121 150.9 21.4  26d 142
2022 11 27 22  04 59 00.923   +48 46 30.60  .02910 1.0123 151.0 21.4  26d 142
2022 11 27 23  04 58 38.127   +48 47 26.23  .02926 1.0124 151.0 21.4  26d 142
2022 11 28 00  04 58 15.561   +48 48 20.86  .02942 1.0126 151.0 21.4  26d 142
2022 11 28 01  04 57 53.222   +48 49 14.50  .02958 1.0127 151.0 21.4  26d 142
2022 11 28 02  04 57 31.107   +48 50 07.17  .02974 1.0128 151.1 21.5  26d 142
2022 11 28 03  04 57 09.212   +48 50 58.89  .02990 1.0130 151.1 21.5  26d 142
2022 11 28 04  04 56 47.535   +48 51 49.67  .03006 1.0131 151.1 21.5  26d 142
2022 11 28 05  04 56 26.072   +48 52 39.55  .03022 1.0133 151.1 21.5  26d 142
2022 11 28 06  04 56 04.820   +48 53 28.52  .03038 1.0134 151.2 21.5  26d 141
2022 11 28 07  04 55 43.777   +48 54 16.61  .03054 1.0135 151.2 21.5  26d 141
2022 11 28 08  04 55 22.939   +48 55 03.84  .03070 1.0137 151.2 21.5  26d 141
2022 11 28 09  04 55 02.303   +48 55 50.22  .03086 1.0138 151.2 21.5  26d 141
2022 11 28 10  04 54 41.868   +48 56 35.77  .03102 1.0140 151.3 21.5  26d 141
2022 11 28 11  04 54 21.630   +48 57 20.50  .03118 1.0141 151.3 21.6  26d 141
2022 11 28 12  04 54 01.586   +48 58 04.43  .03134 1.0142 151.3 21.6  26d 141
2022 11 28 13  04 53 41.734   +48 58 47.57  .03151 1.0144 151.3 21.6  26d 141
2022 11 28 14  04 53 22.071   +48 59 29.93  .03167 1.0145 151.4 21.6  26d 141
2022 11 28 15  04 53 02.595   +49 00 11.54  .03183 1.0147 151.4 21.6  26d 141
2022 11 28 16  04 52 43.303   +49 00 52.39  .03199 1.0148 151.4 21.6  26d 141
2022 11 28 17  04 52 24.192   +49 01 32.52  .03215 1.0149 151.4 21.6  26d 141
2022 11 28 18  04 52 05.261   +49 02 11.92  .03231 1.0151 151.4 21.6  26d 141
2022 11 28 19  04 51 46.507   +49 02 50.62  .03247 1.0152 151.5 21.6  26d 141
2022 11 28 20  04 51 27.927   +49 03 28.62  .03263 1.0154 151.5 21.7  26d 141